Temp
9 9 9 9 9 10 9 9 9 10 11 12 12 12 13 14 14 15 16 16 16 17 17 18 18 19 20 21 24 22 22 23 22 22 21 24 25 25 26 27 28 28 28 28 28 28 28
8 8 8 9 9 9 9 9 9 10 10 11 11 11 12 13 14 14 15 16 16 16 17 17 18 18 17 21 22 22 21 22 22 21 23 24 25 25 25 26 27 27 28 27 27 28 28
8 8 8 8 9 8 8 9 9 10 10 10 11 11 11 12 13 14 14 14 15 16 16 17 17 17 16 19 22 22 21 21 22 22 23 24 24 25 25 26 27 27 27 28 28 29 29
6 6 6 6 8 8 8 8 8 9 10 10 11 11 11 12 13 13 14 14 14 15 15 16 16 17 17 21 21 21 21 22 22 22 23 23 24 24 24 25 26 27 27 26 29 30 29
5 5 5 6 6 6 7 7 8 8 9 9 10 10 10 11 12 13 14 14 14 15 15 15 16 16 19 21 21 21 21 22 22 23 23 23 23 23 24 25 25 26 25 27 29 30 29
4 5 5 5 6 6 6 6 7 8 8 8 9 9 10 10 11 12 13 14 15 15 15 15 15 16 18 20 22 21 22 22 22 23 23 23 23 23 24 24 23 26 27 29 29 30 29
3 3 4 5 5 5 6 6 6 7 7 7 8 8 9 10 10 12 13 15 14 13 13 17 19 18 21 21 21 21 22 22 22 22 23 24 23 22 24 26 26 27 27 27 28 30 29
3 3 3 3 4 5 5 5 6 6 7 7 8 8 9 9 10 11 10 11 10 10 12 15 16 18 19 20 21 21 22 22 23 23 24 24 23 25 26 26 26 26 26 27 28 29 29
3 3 3 3 3 4 4 5 5 6 6 7 7 8 9 9 9 9 9 9 9 9 12 16 17 18 19 19 20 20 21 22 23 23 24 23 24 26 26 26 25 26 26 26 26 27 28
2 2 3 3 3 3 4 4 5 5 6 6 7 8 8 9 9 9 10 8 9 11 14 18 20 19 19 20 20 20 20 21 22 22 23 24 25 25 25 26 26 25 27 27 26 26 25
2 2 2 3 3 3 3 3 4 4 5 6 7 7 8 9 8 10 8 8 9 9 13 22 22 22 20 21 20 22 21 21 21 22 23 22 24 24 24 25 27 26 27 26 26 25 25
2 2 2 2 2 3 3 3 3 4 5 5 6 7 7 7 7 7 8 9 9 13 12 19 21 21 20 20 21 21 21 21 22 22 23 23 24 25 25 26 27 27 26 25 25 24 22
1 1 1 2 2 2 2 2 2 3 4 5 5 6 7 7 7 8 9 9 12 12 18 19 20 21 20 20 21 21 21 20 20 19 20 22 23 25 25 25 26 26 24 22 21 21 22
1 1 1 2 2 2 2 2 2 2 3 4 5 6 6 7 6 8 8 11 10 15 16 19 19 19 18 19 20 21 20 19 21 21 20 20 20 24 25 24 24 24 24 21 20 21 23
1 1 1 1 1 2 1 1 1 2 3 4 4 4 5 5 7 7 8 9 10 14 16 16 15 15 17 18 19 19 19 20 21 21 19 19 19 23 23 24 25 23 23 25 22 23 22
0 1 1 1 1 1 1 1 1 2 2 3 3 4 5 5 6 6 9 9 12 14 15 15 14 15 14 16 17 17 18 20 20 18 16 16 16 18 18 20 21 20 22 21 22 19 20
0 0 1 1 1 1 1 1 1 1 2 2 2 6 4 5 5 7 7 9 11 12 13 14 14 13 14 14 15 15 16 18 18 15 15 12 14 16 20 20 20 21 20 22 22 22 21
0 0 0 1 1 1 1 1 1 1 1 2 2 7 3 4 6 8 8 10 10 12 12 13 13 13 12 13 13 13 14 16 17 16 13 12 12 13 17 20 21 21 20 20 15 14 19
0 0 0 0 0 0 0 0 1 1 1 2 3 5 3 3 7 8 10 11 11 11 11 11 11 13 13 12 12 13 14 15 15 15 9 11 10 10 16 19 20 19 19 18 19 17 14
-0 0 0 0 -0 0 0 0 0 1 1 1 2 4 3 4 5 6 7 9 10 11 11 10 10 11 10 10 12 11 12 14 14 14 11 12 11 10 10 13 14 15 19 20 18 16 16
-0 -0 -0 -0 -0 -0 -0 0 0 0 0 -0 1 3 5 5 4 5 7 7 7 8 10 11 11 11 10 9 10 10 12 12 13 13 13 12 10 10 11 12 12 13 14 17 18 18 16
-0 -0 -0 -0 -0 -0 -0 -0 -0 -0 -0 -1 1 2 4 5 6 6 5 6 7 8 8 9 9 10 11 10 10 8 7 8 9 11 12 12 9 8 8 10 12 8 10 13 16 20 20
-1 -1 -1 -1 -1 -0 -0 -0 -0 -0 -1 -0 -0 -0 0 3 5 6 6 7 7 7 7 8 8 9 9 10 9 8 8 8 8 8 8 8 7 7 7 10 9 8 13 14 16 19 20
-1 -1 -1 -1 -1 -1 -1 -1 -0 -0 -1 -1 1 0 -0 1 3 4 5 6 7 7 6 6 7 8 8 8 7 7 7 9 9 9 9 8 8 8 6 8 6 11 14 15 13 14 19
-2 -1 -1 -1 -1 -1 -1 -0 -0 -0 -1 -1 -1 -0 -1 1 3 3 4 4 5 6 6 6 6 7 7 7 4 4 5 6 8 9 9 10 9 7 6 6 8 10 12 13 15 14 19
-2 -2 -2 -1 -1 -1 -1 -1 -1 -1 -1 -2 -2 -1 -1 -1 0 2 3 3 4 5 5 6 6 6 6 6 4 3 4 6 7 9 11 10 10 8 7 6 6 11 14 16 14 11 17
-2 -2 -1 -1 -1 -1 -1 -1 -1 -1 -1 -2 -2 -2 -1 -1 -1 0 1 2 3 4 4 5 5 6 5 4 3 3 4 6 5 6 7 8 8 7 7 7 8 12 13 13 10 11 13
-2 -2 -1 -1 -1 -1 -1 -1 -1 -1 -1 -1 -1 -1 -2 -2 -1 -0 0 1 2 2 2 3 3 4 4 2 3 4 4 6 6 7 7 7 6 6 7 6 6 12 13 12 12 8 9
-2 -1 -1 -1 -1 -0 -1 -1 -1 -1 -1 -1 -1 -1 -1 -1 -1 -0 -0 1 1 2 2 3 3 2 0 2 4 5 4 5 6 5 8 6 8 7 7 7 10 11 10 10 11 10 9
Height
1524 1526 1526 1527 1529 1530 1533 1534 1533 1533 1533 1533 1532 1532 1532 1532 1532 1532 1531 1531 1530 1529 1528 1527 1525 1524 1522 1522 1518 1516 1515 1516 1515 1515 1516 1516 1515 1513 1509 1504 1500 1499 1497 1495 1493 1491 1491
1522 1523 1525 1528 1528 1528 1530 1532 1532 1532 1531 1531 1531 1531 1530 1530 1530 1530 1530 1530 1528 1528 1527 1526 1524 1524 1524 1522 1517 1516 1516 1515 1515 1516 1516 1515 1514 1512 1509 1506 1502 1497 1496 1494 1492 1489 1487
1520 1522 1523 1525 1525 1527 1528 1531 1530 1530 1530 1530 1529 1530 1529 1529 1528 1528 1528 1529 1527 1526 1526 1525 1524 1522 1521 1517 1515 1516 1515 1515 1516 1516 1515 1514 1514 1513 1509 1504 1499 1497 1497 1490 1484 1480 1480
1518 1520 1521 1523 1523 1525 1526 1529 1528 1528 1528 1527 1528 1528 1528 1527 1526 1526 1526 1526 1526 1525 1524 1524 1523 1522 1516 1512 1513 1513 1513 1513 1513 1513 1514 1514 1513 1511 1510 1506 1499 1496 1493 1494 1473 1468 1476
1517 1519 1521 1521 1521 1523 1525 1527 1526 1526 1526 1526 1525 1526 1526 1525 1524 1523 1522 1523 1523 1522 1522 1522 1523 1522 1513 1509 1507 1508 1508 1509 1510 1511 1511 1512 1512 1510 1508 1505 1502 1493 1499 1487 1474 1465 1471
1516 1517 1518 1519 1521 1522 1524 1525 1525 1524 1525 1525 1525 1524 1523 1523 1521 1520 1519 1519 1519 1519 1520 1520 1520 1524 1508 1505 1505 1506 1507 1507 1507 1507 1507 1510 1510 1507 1503 1503 1511 1493 1482 1473 1472 1464 1467
1513 1516 1517 1519 1520 1521 1523 1524 1524 1523 1523 1524 1524 1523 1521 1521 1521 1518 1518 1517 1518 1517 1514 1512 1509 1506 1503 1504 1504 1504 1504 1504 1505 1504 1503 1503 1505 1505 1496 1490 1487 1485 1482 1480 1468 1463 1466
1514 1517 1516 1517 1519 1520 1521 1523 1523 1523 1523 1523 1523 1523 1522 1520 1519 1518 1518 1519 1520 1521 1514 1508 1505 1503 1501 1503 1500 1501 1503 1503 1501 1498 1497 1499 1493 1492 1489 1486 1484 1482 1481 1477 1470 1466 1465
1513 1515 1517 1518 1518 1520 1521 1521 1523 1523 1523 1523 1522 1522 1521 1520 1519 1519 1521 1521 1522 1520 1516 1497 1495 1494 1495 1499 1493 1493 1500 1498 1497 1493 1489 1492 1483 1484 1481 1480 1482 1480 1479 1477 1477 1468 1462
1512 1515 1515 1517 1518 1520 1521 1521 1521 1522 1523 1522 1522 1522 1522 1520 1522 1521 1523 1521 1520 1519 1511 1487 1482 1478 1484 1489 1482 1488 1491 1494 1491 1486 1483 1480 1476 1476 1475 1471 1472 1478 1468 1467 1470 1473 1480
1513 1515 1514 1517 1518 1518 1520 1520 1521 1521 1523 1523 1523 1522 1522 1520 1520 1524 1524 1520 1518 1520 1522 1474 1467 1473 1477 1480 1481 1476 1480 1481 1481 1478 1483 1476 1473 1473 1473 1465 1464 1464 1465 1464 1465 1468 1468
1510 1510 1513 1515 1518 1517 1518 1520 1522 1520 1521 1524 1523 1523 1522 1523 1522 1523 1521 1520 1521 1519 1514 1480 1473 1472 1476 1478 1476 1477 1476 1477 1475 1474 1471 1467 1466 1465 1462 1460 1459 1461 1462 1464 1464 1471 1485
1510 1511 1513 1515 1516 1517 1519 1519 1519 1520 1520 1523 1523 1522 1522 1521 1523 1521 1521 1523 1520 1516 1487 1478 1475 1472 1474 1475 1471 1473 1474 1475 1477 1479 1473 1464 1459 1459 1460 1460 1456 1457 1465 1482 1489 1484 1481
1509 1510 1512 1513 1514 1516 1517 1519 1520 1520 1520 1521 1522 1521 1521 1521 1521 1521 1522 1523 1523 1498 1494 1483 1482 1482 1480 1476 1473 1468 1467 1473 1471 1470 1470 1467 1466 1453 1452 1455 1458 1454 1458 1474 1484 1479 1469
1508 1510 1512 1513 1516 1517 1517 1518 1519 1519 1520 1521 1521 1522 1521 1522 1521 1521 1525 1522 1518 1505 1495 1496 1496 1491 1486 1479 1478 1474 1469 1467 1462 1463 1468 1469 1463 1450 1447 1448 1447 1450 1452 1445 1459 1454 1462
1507 1509 1510 1513 1515 1516 1516 1517 1518 1520 1521 1520 1521 1523 1522 1522 1521 1524 1525 1520 1511 1507 1504 1501 1504 1499 1496 1489 1484 1478 1472 1464 1464 1470 1473 1468 1465 1459 1450 1449 1447 1454 1450 1451 1448 1469 1467
1506 1508 1509 1512 1514 1515 1516 1517 1518 1521 1521 1522 1522 1522 1522 1521 1522 1525 1523 1515 1509 1509 1509 1506 1503 1503 1499 1495 1492 1488 1482 1472 1473 1478 1481 1487 1479 1460 1447 1441 1447 1448 1450 1440 1438 1441 1446
1505 1507 1508 1510 1511 1513 1516 1516 1518 1520 1522 1523 1524 1521 1521 1521 1525 1519 1515 1512 1512 1510 1509 1507 1504 1504 1504 1501 1498 1494 1489 1482 1477 1480 1488 1491 1486 1473 1456 1435 1434 1437 1446 1448 1472 1479 1449
1503 1505 1507 1509 1510 1513 1515 1516 1517 1519 1522 1524 1524 1520 1522 1523 1517 1513 1510 1507 1507 1508 1508 1508 1505 1502 1501 1498 1498 1493 1489 1486 1485 1482 1494 1497 1495 1490 1451 1441 1431 1439 1441 1451 1448 1456 1471
1501 1504 1506 1508 1511 1513 1514 1515 1517 1520 1522 1524 1524 1520 1521 1521 1520 1517 1513 1508 1504 1504 1503 1506 1506 1506 1505 1502 1499 1492 1488 1486 1486 1485 1490 1489 1492 1497 1488 1463 1459 1451 1435 1433 1442 1454 1456
1498 1501 1504 1507 1510 1511 1513 1514 1516 1519 1521 1524 1523 1518 1514 1513 1517 1517 1516 1512 1509 1507 1503 1500 1497 1498 1500 1498 1495 1492 1490 1488 1487 1487 1485 1486 1486 1490 1478 1472 1472 1461 1450 1435 1431 1431 1446
1495 1498 1501 1504 1507 1509 1510 1512 1515 1517 1519 1522 1521 1521 1517 1513 1512 1511 1513 1511 1510 1507 1506 1501 1498 1497 1494 1492 1492 1496 1503 1496 1493 1486 1482 1481 1485 1488 1476 1468 1468 1477 1459 1442 1429 1418 1414
1493 1495 1498 1501 1503 1505 1507 1509 1512 1514 1516 1518 1519 1519 1520 1514 1510 1508 1505 1503 1503 1506 1504 1502 1500 1497 1494 1494 1494 1496 1497 1497 1495 1494 1492 1490 1491 1492 1473 1469 1471 1469 1436 1437 1426 1414 1412
1490 1492 1495 1497 1499 1501 1502 1505 1507 1509 1511 1515 1517 1518 1517 1509 1511 1509 1507 1504 1500 1498 1498 1499 1497 1495 1495 1495 1493 1490 1491 1487 1486 1486 1486 1483 1485 1487 1477 1477 1478 1436 1432 1429 1432 1420 1402
1486 1488 1490 1491 1494 1495 1496 1498 1500 1503 1506 1509 1512 1514 1512 1504 1504 1505 1504 1502 1499 1496 1495 1494 1494 1493 1494 1496 1498 1491 1486 1483 1478 1477 1476 1475 1475 1478 1480 1474 1457 1440 1426 1432 1422 1411 1393
1481 1482 1484 1486 1487 1488 1490 1491 1493 1496 1500 1503 1505 1508 1508 1502 1496 1503 1501 1500 1497 1494 1492 1488 1489 1491 1491 1489 1489 1487 1482 1475 1468 1462 1459 1463 1464 1468 1466 1463 1454 1414 1417 1416 1428 1403 1391
1476 1477 1478 1480 1481 1482 1484 1485 1488 1490 1493 1496 1496 1501 1503 1496 1494 1499 1496 1496 1496 1494 1488 1486 1484 1484 1485 1483 1482 1478 1474 1471 1469 1467 1464 1460 1458 1457 1453 1448 1435 1413 1420 1425 1435 1407 1389
1471 1473 1473 1474 1474 1475 1476 1478 1481 1483 1486 1488 1486 1492 1493 1487 1483 1488 1488 1489 1491 1491 1488 1484 1484 1477 1479 1482 1475 1469 1465 1460 1461 1456 1455 1453 1454 1450 1446 1446 1436 1419 1413 1418 1409 1404 1403
1467 1467 1466 1466 1466 1467 1469 1471 1472 1475 1477 1480 1478 1481 1484 1481 1473 1472 1475 1476 1479 1481 1484 1481 1480 1479 1477 1469 1465 1459 1458 1453 1450 1449 1444 1447 1442 1441 1442 1434 1425 1418 1416 1416 1414 1414 1406
Wind_Speed
17 16 14 14 13 12 12 11 10 11 12 14 12 12 12 13 13 13 13 14 14 15 15 16 16 15 14 10 10 7 6 6 7 7 7 10 10 12 12 13 12 12 14 17 18 16 16
18 15 13 13 11 10 11 12 12 12 13 14 16 15 14 14 14 14 15 13 13 14 14 14 16 15 10 13 5 6 4 8 7 9 11 11 12 12 13 16 14 19 16 17 20 20 19
19 19 17 17 17 15 14 15 14 14 14 15 15 17 17 18 17 16 16 16 16 15 14 14 14 15 11 21 10 11 9 8 9 11 15 13 12 15 14 15 13 15 16 17 21 23 18
11 10 10 10 11 12 12 12 12 13 15 16 17 19 19 20 20 20 20 18 17 17 16 15 13 13 10 15 15 14 14 15 13 13 15 14 13 15 19 19 22 18 18 15 18 6 6
12 11 9 7 7 8 8 10 11 12 13 14 15 17 18 20 21 22 22 21 19 19 16 14 12 6 14 8 13 14 16 18 16 18 16 14 13 16 18 15 14 15 15 18 17 14 7
11 10 8 7 6 6 6 7 8 8 10 10 11 12 14 16 18 19 21 20 17 20 15 10 12 9 21 15 11 7 8 12 16 18 17 18 15 14 14 14 15 17 17 15 13 11 9
10 7 8 7 6 5 5 5 5 5 6 7 8 9 10 11 12 12 14 10 9 4 9 16 9 14 10 9 6 11 11 12 12 17 18 21 15 16 19 18 21 19 21 21 21 17 20
11 9 7 7 6 5 5 5 5 5 4 5 6 7 9 9 9 8 9 5 4 6 11 17 27 27 29 23 23 14 10 13 15 16 20 18 21 21 22 22 23 23 23 20 19 21 19
13 11 10 7 5 5 6 6 6 6 5 5 5 6 7 7 9 8 7 6 7 5 8 18 32 32 30 24 33 31 24 25 19 21 18 21 24 24 25 23 22 21 22 19 22 21 23
13 12 11 9 7 6 6 6 6 6 5 4 4 4 5 4 6 5 2 8 4 2 5 9 16 15 30 31 34 26 28 29 26 25 23 23 24 24 25 27 22 20 21 21 21 20 14
12 12 10 9 8 7 7 7 7 7 6 4 3 2 3 5 4 4 7 8 2 2 5 7 8 19 10 27 29 23 34 32 27 27 23 26 25 25 25 27 23 22 21 17 19 18 17
10 10 11 11 11 10 9 9 9 9 8 7 4 2 3 6 6 3 7 2 1 4 7 6 3 4 10 15 22 25 28 25 30 26 24 27 37 28 27 26 24 22 21 19 17 12 14
9 9 9 10 10 9 10 10 10 10 9 8 6 4 3 3 2 6 2 1 3 5 5 4 8 8 13 16 16 17 16 16 12 17 20 26 30 28 28 26 24 23 16 12 15 13 13
10 8 8 7 8 7 7 7 8 9 9 6 6 5 5 5 4 3 2 4 6 5 11 17 16 16 17 14 18 16 17 14 18 22 19 18 20 27 25 26 25 22 18 14 24 16 15
10 10 9 7 7 7 7 6 4 5 6 4 2 5 5 4 5 2 3 7 5 5 6 10 14 15 15 15 16 19 17 18 18 19 22 19 25 26 27 23 25 25 21 22 20 20 14
10 9 9 9 9 7 6 6 5 4 1 0 3 5 5 6 7 2 5 8 8 8 13 14 15 12 16 17 18 16 16 16 15 15 26 19 19 16 33 28 22 17 19 21 16 22 23
11 9 9 10 10 9 9 7 6 5 2 1 3 3 3 5 4 6 5 7 13 19 19 18 15 17 19 19 18 20 21 20 7 21 25 14 7 18 20 25 21 15 13 19 17 16 16
11 9 9 9 10 9 9 9 10 8 5 3 2 4 1 2 6 10 9 7 6 19 22 20 16 16 18 17 19 22 23 21 29 14 13 12 5 11 21 22 20 15 21 18 6 8 16
13 11 10 9 8 9 8 7 6 8 8 3 3 4 1 3 5 9 16 17 18 14 14 15 19 19 18 20 20 19 21 25 26 17 7 9 6 7 12 15 18 17 16 25 21 12 20
15 14 11 11 9 9 8 8 8 8 12 7 2 2 3 8 13 14 14 15 18 20 20 17 16 18 18 21 21 22 23 21 24 23 12 3 7 12 13 21 24 18 19 20 22 16 13
18 17 16 15 13 10 10 9 8 9 11 9 4 6 8 3 10 14 15 13 18 19 23 21 18 19 18 18 19 19 22 22 23 26 20 4 13 13 23 24 23 26 28 26 22 22 24
19 19 18 17 15 15 13 12 13 12 12 12 5 4 9 15 17 16 12 15 19 19 21 21 22 22 19 20 17 18 13 13 8 14 15 7 8 12 24 25 21 21 29 29 29 26 21
17 17 18 18 18 17 16 16 16 17 17 15 13 15 7 9 13 12 13 18 17 19 22 26 24 20 21 19 20 18 22 20 19 16 15 13 7 8 21 17 19 16 20 20 25 27 21
16 17 18 19 19 19 20 21 22 21 23 20 17 11 7 11 14 15 19 25 22 22 19 28 26 20 25 21 24 21 23 23 21 20 22 17 14 10 16 18 15 16 16 20 26 28 26
22 23 24 23 24 24 24 24 25 27 28 29 25 24 11 9 18 18 21 23 28 30 27 25 27 29 23 20 8 9 9 14 18 20 20 18 15 13 15 15 21 29 23 22 17 28 25
23 23 23 24 24 24 23 23 23 24 26 29 30 30 25 15 15 29 26 25 15 14 16 27 26 26 25 16 9 10 10 14 11 15 11 20 20 16 15 14 15 24 17 29 20 22 16
22 20 20 21 22 23 24 24 25 25 25 28 29 30 31 28 33 25 17 17 25 23 14 24 24 21 18 10 10 13 15 16 18 20 20 14 13 14 15 18 18 30 27 32 15 11 33
16 18 20 23 25 25 25 26 29 30 30 32 37 34 33 31 38 29 27 37 32 28 13 17 11 15 8 6 6 11 9 12 16 23 23 20 16 14 15 19 24 19 17 18 9 35 40
17 19 22 23 24 26 26 25 26 28 28 29 39 39 39 42 19 12 39 45 40 35 33 31 25 23 5 4 6 6 9 8 15 14 18 17 17 15 17 15 27 40 37 43 45 39 45
Wind_Direction
222 225 226 228 231 241 254 258 261 265 271 277 282 281 279 284 288 291 293 300 307 311 316 321 324 332 335 319 292 302 305 291 246 240 263 264 269 275 271 277 297 282 269 271 278 289 280
236 229 229 229 227 232 244 254 259 264 270 278 287 294 288 277 280 286 292 294 300 308 314 320 324 327 331 281 311 312 318 275 240 259 264 264 274 284 306 284 282 292 300 288 278 272 273
232 235 237 243 245 241 245 251 259 266 273 278 283 289 291 290 284 285 287 291 294 296 306 314 321 326 299 257 265 283 289 251 257 251 265 272 278 276 281 291 275 290 288 278 267 248 244
196 201 211 215 234 244 249 257 262 271 275 278 283 284 288 291 292 292 291 292 295 296 295 302 312 316 269 282 265 260 255 256 253 251 256 268 285 273 271 278 286 281 273 278 277 127 197
193 199 203 207 222 234 245 257 263 274 280 283 286 291 293 293 292 291 291 292 292 292 298 294 305 305 280 284 256 265 248 249 253 253 253 258 268 269 273 261 267 255 258 268 271 188 180
185 189 192 196 207 222 241 255 265 273 286 296 301 303 306 307 304 300 297 292 291 288 287 288 268 278 252 263 252 263 247 252 252 248 253 240 252 256 249 249 257 265 266 264 245 250 201
165 180 183 189 197 210 228 248 266 282 297 310 317 322 327 327 325 323 323 337 280 257 230 228 219 230 268 272 271 264 265 241 249 242 241 234 239 241 252 247 255 264 272 281 293 307 301
169 180 183 183 195 212 222 247 260 274 293 314 329 335 341 346 350 20 8 5 31 300 297 253 256 258 254 261 277 258 247 241 249 242 240 242 242 242 255 256 265 271 277 281 276 280 272
188 189 195 201 201 221 234 241 264 276 293 310 331 343 352 3 32 37 38 25 326 310 259 277 248 249 248 246 251 250 248 256 251 262 241 246 247 242 246 249 258 266 269 268 279 286 288
196 203 210 221 224 226 235 248 256 273 287 303 322 352 4 34 55 13 15 342 315 215 271 262 238 246 238 237 249 245 242 244 249 248 256 254 252 253 257 256 241 259 263 263 264 267 268
201 204 209 218 224 230 240 251 262 265 275 289 307 357 39 49 70 354 313 328 201 11 290 301 258 229 223 217 248 253 232 230 237 242 236 250 255 254 261 261 258 260 266 272 280 289 286
206 210 218 223 230 235 244 251 260 267 273 275 274 261 124 31 34 337 302 123 59 225 247 285 320 195 235 258 251 263 276 243 238 246 249 251 251 254 255 256 256 264 260 262 269 257 264
211 208 218 221 227 236 240 248 258 267 270 274 272 255 240 119 316 275 153 223 235 240 308 270 274 268 253 262 261 249 255 269 256 252 250 246 248 252 256 261 269 241 249 252 247 242 249
216 208 203 208 218 234 240 246 251 256 264 270 266 259 242 240 255 225 81 230 244 260 249 316 323 321 300 308 304 267 255 238 263 244 269 261 253 241 240 245 253 253 242 242 247 243 250
198 200 202 206 218 226 228 234 246 255 275 274 300 334 298 293 228 254 271 231 201 255 267 345 332 302 283 274 262 277 276 275 247 246 265 254 261 277 286 286 239 243 242 253 252 260 258
206 214 219 219 221 226 229 232 239 252 285 76 48 301 251 243 228 166 232 238 242 255 295 305 295 297 294 305 312 313 298 277 278 5 9 333 294 234 276 291 288 282 305 230 242 248 247
216 228 223 220 222 228 232 230 233 238 215 114 34 260 141 252 196 212 226 233 245 258 271 283 282 281 292 298 295 295 295 302 14 1 357 28 315 295 269 259 268 273 263 268 246 244 240
221 221 220 222 225 233 236 236 236 235 212 159 284 228 358 154 214 228 225 252 238 282 291 296 285 276 279 288 287 283 285 287 301 345 353 12 287 282 276 281 283 263 273 263 242 279 292
221 219 220 221 218 219 221 220 228 228 195 204 253 264 214 176 246 242 262 269 256 274 275 282 282 282 282 279 277 275 281 282 286 305 100 356 16 315 273 263 255 264 220 257 278 221 255
222 218 219 219 221 221 226 224 217 209 194 204 252 260 190 222 253 283 290 287 281 268 254 256 275 286 290 284 283 284 279 281 289 293 135 126 273 252 276 292 321 305 284 234 237 256 269
222 223 221 223 223 225 228 229 221 210 207 198 240 239 243 220 231 250 256 276 285 291 293 288 272 266 268 283 288 277 280 284 285 287 287 271 268 280 276 283 291 302 304 293 271 230 239
223 222 226 224 231 236 236 232 228 221 218 216 247 251 258 264 272 264 240 258 273 283 282 273 274 277 276 268 281 313 342 329 339 334 296 248 272 306 292 287 277 317 297 279 278 265 255
218 222 228 232 236 238 237 236 234 227 221 225 241 254 283 268 262 258 262 269 265 272 267 275 280 283 283 285 303 286 284 276 273 286 294 292 299 301 274 301 331 293 263 272 270 265 258
224 230 235 238 241 244 246 244 240 235 230 227 237 242 235 257 257 264 279 283 283 279 277 279 275 275 283 298 311 305 295 275 267 259 254 261 272 274 281 301 272 258 280 302 295 285 263
243 246 248 250 253 256 255 251 245 239 234 235 235 240 249 259 260 262 266 269 273 276 273 272 274 277 279 277 282 280 270 277 266 264 261 253 248 248 251 256 280 290 265 271 292 307 268
246 248 251 254 255 256 254 251 247 243 238 235 239 240 249 270 245 257 272 273 281 281 279 274 267 271 275 278 249 250 248 262 261 270 262 230 237 245 241 241 248 263 282 259 351 282 286
248 249 251 253 253 253 254 251 248 244 240 239 239 237 240 253 256 253 249 256 261 268 274 276 281 276 265 252 246 244 253 256 258 264 264 268 278 262 253 248 254 261 280 289 269 279 329
247 255 261 262 260 255 257 254 249 247 244 241 246 238 234 247 252 243 241 247 256 265 269 276 290 253 218 245 253 246 242 250 253 254 255 257 258 261 274 268 263 277 288 235 289 323 318
263 270 271 264 262 259 256 251 247 247 246 243 249 251 251 242 251 236 245 243 239 247 258 266 263 273 313 277 236 261 251 255 249 254 257 261 263 267 258 268 277 281 298 297 295 300 304